sat.trackr.live / text

‹ back to catalog

STARLINK-11298 [DTC]

NORAD 61211 · 2024-171M

PAYLOAD ACTIVE UNKNOWN

§ Identity

Operator
Country
US
Launch date
2024-09-20
Launch site
AFWTR
Launch vehicle
Mass (kg)
RCS (m²)

Purposes: comms

External: N2YO · Heavens-Above · Gunter

§ Orbital elements

Epoch: 2026-09-20T13:48:32.248800Z

Period
91.74 min
Inclination
53.1612°
Eccentricity
0.0000783
Mean motion
15.69718734 rev/d
Perigee alt
359.2 km
Apogee alt
360.2 km
Semi-major
6,737.8 km
B*
8.6194e-6
RAAN
295.8428°
Arg perigee
36.3187°
Mean anomaly
323.7884°
Rev number
11,500

§ Raw data

STARLINK-11298 [DTC]1 61211U 24171M   26263.57537325  .00000457  00000+0  86194-5 0  99902 61211  53.1612 295.8428 0000783  36.3187 323.7884 15.69718734115008

JSON: /api/v1/satellites/61211 · /tle

For live sub-satellite position, see the globe view (requires WebGL).

§ Visibility from observer

Set your observer location to see the next 7 days of passes ≥ 10°. The values pass through the URL so the page stays shareable.

No JS? Fill the form by hand. The geolocation button needs JavaScript.